{"data":{"norad_id":68005,"epoch":"2026-09-18T20:40:33.582720Z","epoch_age_seconds":201053,"freshness":"STALE","line1":"1 68005U 26039V   26261.86149980  .00010036  00000+0  37377-3 0  9990","line2":"2 68005  43.0003  38.2430 0001563 260.8513  99.2162 15.27577420 31240","mean_motion":15.2757742,"eccentricity":0.0001563,"inclination_deg":43.0003,"raan_deg":38.243,"arg_perigee_deg":260.8513,"mean_anomaly_deg":99.2162,"bstar":0.00037377,"rev_number":3124,"period_min":94.266907925361,"perigee_km":481.98441690438,"apogee_km":484.12922609298,"semimajor_km":6861.1938214987,"source":"CELESTRAK","updated_at":"2026-09-20T09:00:43.738813Z"}}